Home > Time Zones > World Clock > Weather > Peru > Callao > Past weeks

Flag for Peru Weather past 2 weeks in Callao, Callao, Peru

Now
68 °F

Clear.


Feels Like: 68 °F
Forecast: 62 / 72 °F
Wind: 10 mph from South

Location: Lima-Callao / Aerop. Internacional Jorgechavez


UV Index: 7 (High)

Visibility: 10 mi


Pressure: 29.95 "Hg

Humidity: 83%

Dew point: 63 °F

Location of CallaoLocation

Historic Weather in Callao

°F

Callao temperature yesterday

Maximum temperature yesterday: 75 °F (at 12:00 PM)
Minimum temperature yesterday: 66 °F (at 3:00 AM)
Average temperature yesterday: 70 °F

Past Weeks' High & Low Weather Summary

 TemperatureHumidityPressure
High75 °F (Apr 10, 3:00 PM)100% (Apr 13, 2:00 AM)30.01 "Hg (Apr 13, 2:00 AM)
Low63 °F (Apr 10, 4:00 AM)65% (Apr 24, 12:00 PM)29.77 "Hg (Apr 18, 4:00 PM)
Average67 °F85%29.89 "Hg
* Reported Midnight between Apr 9 and Apr 10 — Midnight between Apr 24 and Apr 25, Callao, Weather by CustomWeather, © 2014

Note: Actual official high and low records may vary slightly from our data, if they occured in-between our weather recording intervals... More about our weather records

Advertising

Historic Weather Conditions — Data for Previous 24 hours

 ConditionsComfort  
Time TempWeatherWind HumidityBarometerVisibility
12:00 AM
Apr 25
68 °FClear.12 mph83%29.95 "Hg10 mi
11:00 PM
Apr 24
70 °FClear.12 mph78%29.95 "Hg10 mi
10:00 PM70 °FClear.15 mph78%29.95 "Hg10 mi
9:00 PM70 °FClear.13 mph78%29.95 "Hg10 mi
8:00 PM70 °FClear.13 mph78%29.92 "Hg10 mi
7:00 PM70 °FClear.13 mph78%29.92 "Hg10 mi
6:00 PM72 °FClear.14 mph73%29.89 "Hg10 mi
5:00 PM73 °FSunny.16 mph69%29.89 "Hg10 mi
4:00 PM73 °FSunny.17 mph69%29.86 "Hg10 mi
3:00 PM73 °FSunny.20 mph69%29.86 "Hg10 mi
2:00 PM73 °FSunny.21 mph69%29.89 "Hg10 mi
1:00 PM75 °FSunny.20 mph65%29.92 "Hg10 mi
12:00 PM75 °FSunny.20 mph65%29.92 "Hg10 mi
11:00 AM73 °FSunny.15 mph69%29.95 "Hg10 mi
10:00 AM73 °FSunny.10 mph69%29.95 "Hg10 mi
9:00 AM70 °FSunny.8 mph83%29.95 "Hg10 mi
8:00 AM68 °FSunny.8 mph83%29.95 "Hg10 mi
7:00 AM66 °FSunny.6 mph88%29.92 "Hg10 mi
6:00 AM66 °FClear.6 mph88%29.89 "Hg10 mi
5:00 AM66 °FClear.8 mph88%29.89 "Hg10 mi
4:00 AM66 °FClear.9 mph88%29.89 "Hg10 mi
3:00 AM66 °FClear.10 mph88%29.89 "Hg10 mi
2:00 AM68 °FClear.9 mph83%29.89 "Hg10 mi
1:00 AM68 °FClear.12 mph83%29.92 "Hg10 mi
Weather by CustomWeather, © 2014

See weather overview